Location: South Troy
(42.7009°N, 73.6726°W)
Time: 15:08:31
(UTC+00:00)

SAR-Lupe-2 - Pass Details

Date: 20 September 2024
Orbit: 481 x 482 km, 98.1° (Epoch: 05 September)

Event Time Altitude Azimuth Distance (km) Brightness Sun altitude
Rises 23:30:55 0° 148° (SSE) 2,530 6.8 -7.5°
Reaches altitude 10° 23:33:03 10° 139° (SE) 1,656 5.8 -7.9°
Maximum altitude 23:36:21 37° 71° (ENE) 765 4.1 -8.5°
Drops below altitude 10° 23:39:41 10° 3° (N) 1,670 6.4 -9.1°
Sets 23:41:50 0° 355° (N) 2,555 7.4 -9.5°
